This demonstration page uses our WeatherBlox Daily Observations layout. Learn more.

Left ArrowRight Arrow

Hourly Observations for August 22, 2015

Temp ( °F °C ) Dew Point ( °F °C ) Humidity (%) Winds ( mph kmh ) Pressure ( in mb ) Visibility ( mi km ) Precip ( " mm )
12:53 am 00:53 Clear 56 13.3 55 12.8 97 97 N N/A 30.14 1021 10 16 N/A
1:53 am 01:53 Clear 56 13.3 54 12.2 93 93 N N/A 30.14 1021 10 16 N/A
2:53 am 02:53 Clear 55 12.8 53 11.7 93 93 N N/A 30.14 1021 10 16 N/A
3:53 am 03:53 Clear 54 12.2 53 11.7 97 97 N N/A 30.13 1020 10 16 N/A
4:53 am 04:53 Clear 54 12.2 52 11.1 93 93 N N/A 30.13 1020 7 11 N/A
5:53 am 05:53 Clear 53 11.7 52 11.1 96 96 N N/A 30.14 1021 7 11 N/A
6:53 am 06:53 Clear 52 11.1 51 10.6 97 97 N N/A 30.15 1021 10 16 N/A
7:53 am 07:53 Sunny 57 13.9 55 12.8 93 93 N N/A 30.16 1022 8 13 N/A
8:53 am 08:53 Sunny 66 18.9 57 13.9 73 73 N N/A 30.17 1022 10 16 N/A
9:53 am 09:53 Sunny 71 21.7 58 14.4 63 63 N N/A 30.17 1022 10 16 N/A
10:53 am 10:53 Sunny 75 23.9 57 13.9 54 54 E 6 9 30.17 1022 10 16 N/A
11:53 am 11:53 Sunny 77 25 55 12.8 47 47 ESE 7 11 30.17 1022 10 16 N/A
12:53 pm 12:53 Mostly Sunny 78 25.6 55 12.8 45 45 E 7 11 30.15 1021 10 16 N/A
1:53 pm 13:53 Sunny 79 26.1 56 13.3 45 45 VRB 5 7 30.13 1020 10 16 N/A
2:53 pm 14:53 Sunny 80 26.7 56 13.3 44 44 VRB 3 6 30.11 1020 10 16 N/A
3:53 pm 15:53 Sunny 81 27.2 54 12.2 39 39 VRB 5 7 30.09 1019 10 16 N/A
4:53 pm 16:53 Sunny 81 27.2 55 12.8 41 41 E 5 7 30.07 1018 10 16 N/A
5:53 pm 17:53 Sunny 79 26.1 56 13.3 45 45 E 8 13 30.06 1018 10 16 N/A
6:53 pm 18:53 Sunny 77 25 59 15 54 54 E 6 9 30.05 1018 10 16 N/A
7:53 pm 19:53 Sunny 73 22.8 59 15 62 62 E 7 11 30.04 1017 10 16 N/A
8:53 pm 20:53 Clear 65 18.3 61 16.1 87 87 N N/A 30.05 1018 10 16 N/A
9:53 pm 21:53 Clear 63 17.2 60 15.6 90 90 N N/A 30.05 1018 10 16 N/A
10:53 pm 22:53 Clear 62 16.7 59 15 90 90 N N/A 30.04 1017 10 16 N/A
11:53 pm 23:53 Clear 62 16.7 59 15 90 90 N N/A 30.04 1017 10 16 N/A

Powered by AerisWeather